BEIDOU-3 M15 (C34)

Last updated on Aug. 15, 2020, 5:35 a.m. UTC

1 43647U 18078A   20227.79839929 -.00000073  00000-0  10000-3 0  9992
2 43647  55.2062  13.6251 0005783 354.4085  14.7915  1.86232852 12463
UTC
Height (km)
Latitude
Longitude
Inclination
Orbital Period
UTC large
Height (km)
Speed (km/s)
/
Latitude / Longitude
Inclination (degrees)
Orbital Period (minutes)
Azimuth
Elevation
Range (km)
Doppler Factor
iOS Compass Heading
iOS Angle

Next 30 passes for location: Hong Kong

Rise time Rise Azimuth (degrees) Set time Set Azimuth (degrees) Duration Max altitude (degrees)

No matching passes for this satellites